User: anonymous   Login
Location: Walnut Point State Park
(39.6958°N, 88.0345°W)
Time: 06:26:38
(UTC-06:00)
Language:

Iridium 75 - Orbit

View from above orbital plane
View from above orbital plane
View from above satellite
View from above satellite

Ground track
Ground track

The orbit data is extracted from the following two-line orbital elements,

1 25346U 98032E   18020.87868441 +.00000170 +00000-0 +53677-4 0  9999
2 25346 086.3992 133.1850 0002117 096.2587 263.8850 14.34220636030576
Epoch (UTC): 20 January 2018 21:05:18
Eccentricity: 0.0002117
inclination: 86.3992°
perigee height: 776 km
apogee height: 779 km
right ascension of ascending node: 133.1850°
argument of perigee: 96.2587°
revolutions per day: 14.34220636
mean anomaly at epoch: 263.8850°
orbit number at epoch: 3057

The dashed part of the orbit path shows where the satellite is in the earth's shadow,  

DLR